{"data":{"norad_id":65625,"epoch":"2026-05-24T21:09:36.988704Z","epoch_age_seconds":88465,"freshness":"FRESH","line1":"1 65625U 25210D   26144.88167811  .00037014  00000+0  11012-2 0  9992","line2":"2 65625  53.1597 311.9560 0001126  85.0422 275.0709 15.34400533 39338","mean_motion":15.34400533,"eccentricity":0.0001126,"inclination_deg":53.1597,"raan_deg":311.956,"arg_perigee_deg":85.0422,"mean_anomaly_deg":275.0709,"bstar":0.0011012,"rev_number":3933,"period_min":93.847725481727,"perigee_km":461.93137758657,"apogee_km":463.47193445191,"semimajor_km":6840.8386560192,"source":"CELESTRAK","updated_at":"2026-05-25T13:38:20.879373Z"}}